Hourly Data Report for September 22, 2017

All times are specified in Local Standard Time (LST). Add 1 hour to adjust for Daylight Saving Time where and when it is observed.

KITCHENER/WATERLOO
ONTARIO

43°27'39.000" N
80°22'43.000" W
321.60 m
6144239
71368
YKF

Download Data

Hourly Data (September 2017)
Hourly Data Report for September 22, 2017
Temp Definition
°C
Dew Point Temp Definition
°C
Rel Hum Definition
%
Wind Dir Definition
10's deg

Wind Spd Definition
km/h
Visibility Definition
km
Stn Press Definition
kPa
Hmdx Definition


Wind Chill Definition


Weather Definition


TIME
00:00 Legend Double Dagger 15.6 15.1 97   0 12.9 98.24     LegendNANA
01:00 Legend Double Dagger 15.0 14.7 98 1 4 9.7 98.26     Fog
02:00 Legend Double Dagger 14.7 14.6 99 36 5 4.0 98.24     Fog
03:00 Legend Double Dagger 13.8 13.7 99 8 8 8.1 98.23     Fog
04:00 Legend Double Dagger 13.2 13.1 99 28 8 1.2 98.28     Fog
05:00 Legend Double Dagger 13.3 13.2 99 34 5 2.0 98.33     Fog
06:00 Legend Double Dagger 13.2 13.1 99   0 0.6 98.35     Fog
07:00 Legend Double Dagger 13.3 13.2 99   0 2.0 98.36     Fog
08:00 Legend Double Dagger 17.9 16.3 90   0 11.3 98.36     LegendNANA
09:00 Legend Double Dagger 22.6 16.9 70 12 5 16.1 98.37 28   LegendNANA
10:00 Legend Double Dagger 24.8 16.0 58 15 9 16.1 98.35 29   LegendNANA
11:00 Legend Double Dagger 26.6 15.6 50 15 15 16.1 98.33 31   LegendNANA
12:00 Legend Double Dagger 27.4 13.9 43 11 11 9.7 98.31 31   Haze
13:00 Legend Double Dagger 28.1 12.2 37 8 8 8.1 98.27 30   Haze
14:00 Legend Double Dagger 28.9 12.6 36 12 9 12.9 98.22 31   LegendNANA
15:00 Legend Double Dagger 29.2 13.0 36 16 9 6.4 98.16 32   Haze
16:00 Legend Double Dagger 28.4 15.0 43 14 15 16.1 98.14 32   LegendNANA
17:00 Legend Double Dagger 26.8 16.5 53 12 11 16.1 98.15 32   LegendNANA
18:00 Legend Double Dagger 23.5 16.4 64 12 8 16.1 98.17 28   LegendNANA
19:00 Legend Double Dagger 21.2 15.8 71 12 9 16.1 98.14 26   LegendNANA
20:00 Legend Double Dagger 19.0 15.9 82 LegendMM 4 16.1 98.15     LegendNANA
21:00 Legend Double Dagger 17.2 14.6 84 10 4 16.1 98.17     LegendNANA
22:00 Legend Double Dagger 15.3 13.9 91   0 16.1 98.22     LegendNANA
23:00 Legend Double Dagger 14.9 13.2 89 7 4 16.1 98.16     LegendNANA

Notes on Data Quality.

Legend

  • E = Estimated
  • M = Missing
  • NA = Not Available
  • ‡ = Partner data that is not subject to review by the National Climate Archives
Date modified: